| time (UTC) | temp F | wind direction | speed knots | gust knots | rain 1hr in | rain 24hr in | rain mn in | humidity % | barometer mb |
| 20260506112357 | 50 | 342 | 2.6 | 1.7 | 0.00 | 0.00 | 0.00 | 99 | 1018.8 |
| 20260506110957 | 50 | 274 | 0.9 | 0.0 | 0.00 | 0.00 | 0.00 | 100 | 1018.9 |
| 20260506105550 | 50 | 252 | 0.0 | 0.0 | 0.00 | 0.00 | 0.00 | 100 | 1019.1 |
| 20260506104146 | 51 | 328 | 0.0 | 0.0 | 0.00 | 0.00 | 0.00 | 99 | 1019.1 |
| 20260506102743 | 51 | 20 | 0.9 | 1.7 | 0.00 | 0.00 | 0.00 | 99 | 1019.4 |
| 20260506101338 | 51 | 224 | 0.0 | 0.9 | 0.00 | 0.00 | 0.00 | 100 | 1019.5 |
| 20260506095934 | 50 | 200 | 1.7 | 1.7 | 0.00 | 0.00 | 0.00 | 100 | 1019.5 |
| 20260506094530 | 50 | 222 | 0.0 | 0.0 | 0.00 | 0.00 | 0.00 | 100 | 1019.6 |
| 20260506093127 | 50 | 222 | 0.0 | 0.0 | 0.00 | 0.00 | 0.00 | 100 | 1019.7 |
| 20260506091722 | 50 | 274 | 1.7 | 0.9 | 0.00 | 0.00 | 0.00 | 100 | 1019.5 |
| 20260506090317 | 50 | 322 | 0.9 | 0.9 | 0.00 | 0.00 | 0.00 | 100 | 1019.6 |
| 20260506084913 | 51 | 347 | 2.6 | 1.7 | 0.00 | 0.00 | 0.00 | 100 | 1019.8 |
| 20260506083509 | 51 | 23 | 2.6 | 3.5 | 0.00 | 0.00 | 0.00 | 99 | 1019.9 |
| 20260506082108 | 51 | 264 | 0.9 | 0.0 | 0.00 | 0.00 | 0.00 | 98 | 1019.9 |
| 20260506080703 | 51 | 277 | 0.9 | 0.9 | 0.00 | 0.00 | 0.00 | 99 | 1019.9 |
| 20260506072452 | 51 | 284 | 2.6 | 3.5 | 0.00 | 0.00 | 0.00 | 100 | 1020.5 |
| 20260506071048 | 51 | 285 | 1.7 | 1.7 | 0.00 | 0.00 | 0.00 | 100 | 1020.6 |
| 20260506061434 | 52 | 200 | 2.6 | 2.6 | 0.00 | 0.00 | 0.00 | 100 | 1020.2 |
| 20260506050411 | 52 | 3 | 3.5 | 3.5 | 0.00 | 0.00 | 0.00 | 100 | 1020.1 |
| 20260506045009 | 52 | 333 | 0.0 | 0.0 | 0.00 | 0.00 | 0.00 | 100 | 1019.8 |
| 20260506043603 | 52 | 77 | 0.0 | 1.7 | 0.00 | 0.00 | 0.00 | 100 | 1020.0 |
| 20260506042200 | 52 | 195 | 3.5 | 4.3 | 0.00 | 0.00 | 0.00 | 100 | 1019.7 |
| 20260506040754 | 52 | 165 | 2.6 | 3.5 | 0.00 | 0.00 | 0.00 | 100 | 1019.8 |
| 20260506035349 | 53 | 28 | 5.2 | 2.6 | 0.00 | 0.00 | 0.00 | 100 | 1019.8 |
| 20260506033943 | 53 | 30 | 0.0 | 0.0 | 0.00 | 0.00 | 0.00 | 100 | 1019.6 |
| 20260506032538 | 53 | 60 | 4.3 | 2.6 | 0.00 | 0.00 | 0.00 | 100 | 1019.6 |
| 20260506031138 | 53 | 149 | 1.7 | 0.9 | 0.00 | 0.00 | 0.00 | 100 | 1019.6 |
| 20260506025730 | 53 | 315 | 0.9 | 1.7 | 0.00 | 0.00 | 0.00 | 100 | 1019.7 |
| 20260506024324 | 53 | 156 | 1.7 | 0.9 | 0.00 | 0.00 | 0.00 | 100 | 1019.3 |
| 20260506022919 | 53 | 63 | 2.6 | 2.6 | 0.00 | 0.00 | 0.00 | 100 | 1019.3 |
| 20260506021514 | 53 | 359 | 2.6 | 2.6 | 0.00 | 0.00 | 0.00 | 100 | 1019.4 |
| 20260506020113 | 52 | 301 | 0.0 | 0.0 | 0.00 | 0.00 | 0.00 | 100 | 1019.3 |
| 20260506014711 | 52 | 326 | 1.7 | 2.6 | 0.00 | 0.00 | 0.00 | 100 | 1019.3 |
| 20260506013308 | 52 | 357 | 3.5 | 2.6 | 0.00 | 0.00 | 0.00 | 100 | 1019.1 |
| 20260506011900 | 52 | 27 | 3.5 | 3.5 | 0.00 | 0.00 | 0.00 | 100 | 1019.4 |
| 20260506010500 | 52 | 343 | 3.5 | 2.6 | 0.00 | 0.00 | 0.00 | 100 | 1019.4 |
| 20260506005054 | 52 | 338 | 2.6 | 2.6 | 0.00 | 0.00 | 0.00 | 100 | 1019.4 |
| 20260506003653 | 52 | 335 | 0.9 | 0.9 | 0.00 | 0.00 | 0.00 | 100 | 1019.1 |
| 20260506002250 | 51 | 44 | 1.7 | 1.7 | 0.00 | 0.00 | 0.00 | 100 | 1019.0 |
| 20260506000843 | 49 | 35 | 2.6 | 1.7 | 0.00 | 0.00 | 0.00 | 100 | 1019.1 |
| 20260505235439 | 48 | 100 | 1.7 | 1.7 | 0.00 | 0.00 | 0.00 | 100 | 1019.4 |
| 20260505234037 | 47 | 117 | 0.0 | 0.0 | 0.00 | 0.00 | 0.00 | 100 | 1019.5 |
| 20260505232631 | 47 | 98 | 1.7 | 1.7 | 0.00 | 0.00 | 0.00 | 100 | 1019.5 |
| 20260505231231 | 46 | 257 | 0.9 | 1.7 | 0.00 | 0.00 | 0.00 | 100 | 1019.5 |
| 20260505225828 | 45 | 169 | 2.6 | 0.9 | 0.00 | 0.00 | 0.00 | 100 | 1019.3 |
| 20260505224418 | 45 | 174 | 0.9 | 4.3 | 0.00 | 0.00 | 0.00 | 100 | 1019.4 |
| 20260505221611 | 43 | 131 | 1.7 | 2.6 | 0.00 | 0.00 | 0.00 | 100 | 1019.5 |
| 20260505220210 | 43 | 179 | 3.5 | 2.6 | 0.00 | 0.00 | 0.00 | 100 | 1019.3 |
| 20260505214808 | 42 | 180 | 4.3 | 5.2 | 0.00 | 0.00 | 0.00 | 100 | 1019.4 |
| 20260505213404 | 41 | 228 | 2.6 | 2.6 | 0.00 | 0.00 | 0.00 | 100 | 1019.3 |
| 20260505212003 | 41 | 158 | 1.7 | 0.9 | 0.00 | 0.00 | 0.00 | 100 | 1019.1 |
| 20260505210601 | 40 | 204 | 3.5 | 5.2 | 0.00 | 0.00 | 0.00 | 100 | 1018.8 |
| 20260505205158 | 39 | 193 | 3.5 | 3.5 | 0.00 | 0.00 | 0.00 | 100 | 1018.8 |
| 20260505203757 | 39 | 240 | 1.7 | 1.7 | 0.00 | 0.00 | 0.00 | 100 | 1018.8 |
| 20260505202352 | 38 | 191 | 3.5 | 0.9 | 0.00 | 0.00 | 0.00 | 100 | 1018.8 |
| 20260505200950 | 38 | 222 | 1.7 | 3.5 | 0.00 | 0.00 | 0.00 | 100 | 1018.8 |
| 20260505195547 | 37 | 169 | 0.0 | 0.0 | 0.00 | 0.00 | 0.00 | 100 | 1018.8 |
| 20260505194142 | 37 | 260 | 1.7 | 0.9 | 0.00 | 0.00 | 0.00 | 100 | 1018.7 |
| 20260505192738 | 38 | 245 | 0.9 | 0.0 | 0.00 | 0.00 | 0.00 | 100 | 1018.7 |
| 20260505191335 | 38 | 38 | 0.0 | 0.0 | 0.00 | 0.00 | 0.00 | 100 | 1018.8 |
| 20260505185931 | 38 | 342 | 1.7 | 1.7 | 0.00 | 0.00 | 0.00 | 100 | 1018.8 |
| 20260505184525 | 39 | 122 | 0.0 | 0.0 | 0.00 | 0.00 | 0.00 | 100 | 1018.8 |
| 20260505183120 | 39 | 264 | 0.0 | 0.0 | 0.00 | 0.00 | 0.00 | 100 | 1018.9 |
| 20260505181715 | 39 | 105 | 0.0 | 0.0 | 0.00 | 0.00 | 0.00 | 100 | 1019.1 |
| 20260505180309 | 39 | 158 | 1.7 | 1.7 | 0.00 | 0.00 | 0.00 | 100 | 1019.5 |
| 20260505174906 | 39 | 250 | 0.9 | 0.9 | 0.00 | 0.00 | 0.00 | 100 | 1019.5 |
| 20260505173502 | 39 | 184 | 0.0 | 0.0 | 0.00 | 0.00 | 0.00 | 100 | 1019.6 |
| 20260505172058 | 39 | 212 | 0.0 | 2.6 | 0.00 | 0.00 | 0.00 | 100 | 1019.5 |
| 20260505170654 | 39 | 330 | 0.9 | 2.6 | 0.00 | 0.00 | 0.00 | 100 | 1019.6 |
| 20260505165250 | 40 | 20 | 3.5 | 0.9 | 0.00 | 0.00 | 0.00 | 100 | 1019.7 |
| 20260505163845 | 40 | 316 | 2.6 | 1.7 | 0.00 | 0.00 | 0.00 | 100 | 1019.9 |
| 20260505162441 | 40 | 321 | 2.6 | 1.7 | 0.00 | 0.00 | 0.00 | 100 | 1020.1 |
| 20260505161041 | 40 | 335 | 2.6 | 4.3 | 0.00 | 0.00 | 0.00 | 100 | 1020.3 |
| 20260505152823 | 42 | 35 | 1.7 | 0.9 | 0.00 | 0.00 | 0.00 | 100 | 1020.5 |
| 20260505151420 | 43 | 278 | 0.9 | 1.7 | 0.00 | 0.00 | 0.00 | 100 | 1020.9 |
| 20260505140401 | 44 | 302 | 0.9 | 0.9 | 0.00 | 0.00 | 0.00 | 100 | 1022.0 |
| 20260505123933 | 45 | 18 | 0.9 | 2.6 | 0.00 | 0.00 | 0.00 | 100 | 1023.0 |
| 20260505122533 | 45 | 44 | 0.0 | 1.7 | 0.00 | 0.00 | 0.00 | 100 | 1023.1 |
| 20260505121128 | 45 | 0 | 0.0 | 0.0 | 0.00 | 0.00 | 0.00 | 100 | 1023.2 |
| 20260505115722 | 45 | 13 | 0.9 | 0.0 | 0.00 | 0.00 | 0.00 | 100 | 1023.4 |